Vacaville, CA

12:06 AM PDT on September 22, 2017 (GMT -0700)
Nut Tree

Weather History for KVCB - October, 2011

Change the Weather History Date:

Tuesday, October 25, 2011

  Actual Average Record
Temperature  
Mean Temperature 62 °F -  
Max Temperature 77 °F 76 °F 93 °F (2003)
Min Temperature 50 °F 47 °F 35 °F (1949)
Degree Days  
Heating Degree Days 4    
Growing Degree Days 12 (Base 50)    
Moisture  
Dew Point 40 °F    
Average Humidity 55    
Maximum Humidity 93    
Minimum Humidity 15    
Precipitation  
Precipitation 0.00 in - - ()
Sea Level Pressure  
Sea Level Pressure 30.02 in    
Wind  
Wind Speed 6 mph (WSW)    
Max Wind Speed 15 mph    
Max Gust Speed 23 mph    
Visibility 10 miles    
Events      
Averages and records for this station are not official NWS values.
T = Trace of Precipitation, MM = Missing Value Source: NWS Daily Summary

Daily Weather History Graph

Daily Weather History Graph

Search for Another Location

Airport or City:

Trip Planner

Search our weather history database for the weather conditions in past years. The results will help you decide how hot, cold, wet, or windy it might be!

Date:

Astronomy

Oct. 25, 2011 Rise Set
Actual Time 7:26 AM PDT 6:16 PM PDT
Civil Twilight 6:59 AM PDT 6:43 PM PDT
Nautical Twilight 6:28 AM PDT 7:14 PM PDT
Astronomical Twilight 5:57 AM PDT 7:45 PM PDT
Moon 6:05 AM PDT (10/25) 5:21 PM PDT (10/25)
Length of Visible Light 11h 44m
Length of Day
10h 49m
Waning Crescent, 2% of the Moon is Illuminated
Oct 25
Waning Crescent
Oct 26
New
Nov 2
First Quarter
Nov 10
Full
Nov 18
Last Quarter

Hourly Weather History & Observations

Time (PDT) Temp. Dew Point Humidity Pressure Visibility Wind Dir Wind Speed Gust Speed Precip Events Conditions
12:53 AM 55.9 °F 52.0 °F 87% 29.99 in 10.0 mi WSW 6.9 mph - N/A   Clear
1:53 AM 55.0 °F 51.1 °F 86% 30.00 in 10.0 mi SW 5.8 mph - N/A   Clear
2:53 AM 54.0 °F 51.1 °F 90% 30.01 in 10.0 mi SW 8.1 mph - N/A   Clear
3:53 AM 53.1 °F 50.0 °F 89% 30.00 in 10.0 mi WSW 4.6 mph - N/A   Clear
5:53 AM 50.0 °F 48.0 °F 93% 30.02 in 10.0 mi SW 3.5 mph - N/A   Clear
6:53 AM 50.0 °F 46.9 °F 89% 30.02 in 10.0 mi SW 5.8 mph - N/A   Clear
7:53 AM 50.0 °F 46.9 °F 89% 30.04 in 9.0 mi SW 5.8 mph - N/A   Clear
8:53 AM 55.9 °F 48.0 °F 75% 30.05 in 10.0 mi SW 3.5 mph - N/A   Clear
9:53 AM 63.0 °F 45.0 °F 52% 30.06 in 10.0 mi Calm Calm - N/A   Clear
10:53 AM 69.1 °F 26.1 °F 20% 30.06 in 10.0 mi North 10.4 mph 17.3 mph N/A   Clear
1:53 PM 73.0 °F 41.0 °F 31% 30.02 in 10.0 mi SSW 5.8 mph - N/A   Clear
2:53 PM 73.9 °F 44.1 °F 34% 30.00 in 10.0 mi WSW 8.1 mph - N/A   Clear
3:53 PM 73.9 °F 45.0 °F 35% 30.00 in 10.0 mi WSW 5.8 mph - N/A   Clear
4:53 PM 73.0 °F 48.0 °F 41% 30.00 in 10.0 mi Calm Calm - N/A   Clear
6:53 PM 60.1 °F 32.0 °F 35% 30.02 in 10.0 mi Calm Calm - N/A   Clear
7:53 PM 59.0 °F 34.0 °F 39% 30.03 in 10.0 mi West 3.5 mph - N/A   Clear
8:53 PM 53.1 °F 39.0 °F 59% 30.03 in 10.0 mi SW 3.5 mph - N/A   Clear
9:53 PM 66.0 °F 19.0 °F 17% 30.03 in 10.0 mi NNW 9.2 mph - N/A   Clear
10:53 PM 68.0 °F 18.0 °F 15% 30.04 in 10.0 mi North 15.0 mph - N/A   Clear
11:53 PM 66.0 °F 17.1 °F 15% 30.04 in 10.0 mi North 13.8 mph 23.0 mph N/A   Clear